星链-4714 (STARLINK-4714 )

导读 | 星芒AI

STARLINK-4714 是 SpaceX Starlink 卫星互联网项目中的一颗低轨通信卫星。它属于 Starlink 群体部署计划的一部分,旨在为全球用户提供高速互联网服务。该卫星运行在约 550 公里的近地轨道上,采用先进的通信技术,支持宽带数据传输。作为 Starlink 网络的重要节点,STARLINK-4714 有助于提升网络覆盖范围与连接稳定性,特别是在偏远和网络基础设施薄弱的地区。其发射和运行体现了 SpaceX 在构建全球卫星互联网方面的持续努力。

基本信息
目录编号:
53704
目录名称:
STARLINK-4714
国际标识:
2022-107E
轨道中心:
EARTH
卫星名称:
星链-4714
卫星全名:
星链-4714 (STARLINK-4714 )
卫星状态:
在轨 (已飞行1157 天)
发射日期:
2022-09-05 UTC
国别 :
美国 (US)
星等 :
--
轨道信息
数据来源 国际轨道数据
星历时间: 2025-11-04T01:22:17+0800
1天前
查看轨道信息
半长轴: 6917.891km
偏心率: 0.0001667
轨道倾角: 53.215°
近地点辐角 88.440°
升交点赤经 89.856°
平近点角 271.678°
近地点: 538.602km
远地点: 540.91km
周期: 95.438分钟
每日圈数: 15.088366
详细信息
固有亮度:
5
最大亮度:
2.5
卫星平台:
Starlink v1.5
覆盖范围:
全球
运营商:
太空探索技术公司
运营商所在国:
美国
制造商(研发单位):
太空探索技术公司
制造商所在国:
美国
使用方式:
暂无
卫星简介
星链(Starlink)计划是由太空探索技术公司(SpaceX)提出的一个巨型低轨卫星互联网星座项目,计划在2019年至2024年间在太空搭建由约1.2万颗卫星组成的“星链”网络,其中1584颗将部署在地球上空550千米处的近地轨道,并从2020年开始工作。该卫星仍在工作。
2D轨道图
3D轨道图
轨道高度分析图
轨道倾角分析图
轨道综合分析图
查看轨道综合分析图